Theta_e
314 315 315 314 313 317 320 319 316 325 325 320 319 320 322 320 318 318 320 326 328 330 317 313 313 314 314 313 312 309 314 316 317 317 321 313 316 313 315 327 325 326 326 328 334
314 314 315 315 313 314 320 321 316 325 325 322 324 321 323 318 315 312 322 325 328 327 329 313 314 316 315 313 312 312 313 315 314 312 315 313 315 313 322 328 331 332 328 331 332
311 311 314 315 314 313 318 321 316 324 325 320 322 323 322 320 313 314 322 324 323 331 325 322 316 316 322 318 313 313 314 313 314 313 312 314 313 313 320 326 324 329 328 330 330
311 311 312 314 314 314 314 320 317 324 326 324 323 323 322 319 330 314 321 321 321 312 312 315 316 318 322 329 318 314 312 312 312 312 312 312 310 314 318 318 316 325 329 331 330
311 311 311 313 314 314 314 315 318 321 324 324 324 323 323 317 322 319 312 318 318 312 312 313 318 316 322 320 314 313 312 311 311 312 311 310 312 314 315 313 324 328 331 331 331
310 309 310 310 313 313 314 316 319 321 325 324 324 324 320 326 316 323 313 313 316 311 311 313 314 317 322 316 315 311 311 311 311 311 310 312 311 314 314 325 328 329 331 331 331
308 309 308 310 309 313 313 318 319 324 324 322 323 321 316 323 320 312 313 317 315 311 310 312 315 316 315 319 314 317 317 310 311 312 311 310 313 311 310 327 329 329 330 331 331
307 309 308 309 309 312 314 316 318 323 323 322 320 317 313 313 319 312 315 315 312 310 311 312 313 311 314 312 309 313 313 318 311 311 309 310 314 312 314 326 329 328 326 327 328
306 308 307 307 310 311 312 312 317 322 321 318 314 312 312 312 313 312 313 312 309 310 310 310 311 309 308 308 309 308 311 311 312 310 310 311 312 310 313 323 326 328 326 327 328
305 307 306 306 310 309 312 313 317 321 319 314 312 313 310 312 312 312 311 310 309 308 309 308 305 307 304 308 315 309 310 310 311 310 310 311 311 309 307 319 322 326 326 327 327
305 307 306 305 307 311 314 316 317 315 313 312 311 313 311 311 310 311 309 308 307 307 308 307 308 311 306 307 311 309 310 311 309 308 310 310 311 309 307 306 310 315 321 323 326
306 306 306 306 307 309 312 316 317 312 316 312 310 311 310 311 310 309 310 308 308 307 306 308 309 307 307 306 308 310 312 310 309 309 309 309 309 307 306 305 305 309 310 317 317
304 305 306 306 307 309 311 312 315 314 316 313 310 312 313 311 310 309 308 307 307 307 307 308 309 307 308 307 307 307 308 307 311 309 308 309 308 308 307 304 304 303 304 305 310
304 304 306 305 306 308 311 313 314 314 317 316 312 314 313 313 314 310 308 308 307 307 307 308 306 308 308 308 306 308 307 307 308 309 310 306 311 308 306 307 304 304 302 303 301
303 304 305 305 307 309 310 313 313 314 323 314 313 311 312 313 313 314 310 307 307 306 307 307 307 307 308 308 307 309 305 307 307 306 307 306 306 306 304 304 304 305 305 304 304
302 303 304 305 306 308 311 313 312 317 318 313 312 312 316 314 314 312 312 308 305 307 305 306 305 307 308 306 307 304 305 303 302 303 308 307 307 308 304 304 305 303 304 306 306
302 303 304 305 307 306 309 311 314 321 309 312 313 316 315 317 315 311 311 311 307 308 307 306 307 306 306 306 305 305 306 307 309 307 310 303 304 311 306 303 304 305 304 300 300
302 302 302 304 306 308 309 312 318 313 312 310 312 317 316 317 315 311 311 311 310 305 306 308 308 306 305 306 306 305 306 308 310 308 307 303 306 307 303 303 301 301 301 303 301
302 301 302 304 305 308 311 313 315 312 309 310 313 317 313 312 317 313 311 310 310 308 307 306 306 306 305 305 307 306 306 305 306 296 304 304 303 303 304 303 302 301 300 301 301
301 302 304 304 307 307 309 313 310 309 308 310 313 312 314 312 317 317 314 311 311 310 305 306 308 306 306 306 306 305 306 309 306 306 307 305 305 306 307 305 304 302 302 302 302
301 304 306 306 308 305 310 313 306 306 308 310 308 309 311 312 315 318 315 312 312 310 304 304 307 308 307 306 306 306 306 305 306 306 308 305 304 301 304 303 303 301 302 302 301
301 305 308 309 307 303 309 310 306 307 306 306 306 307 310 310 310 315 315 311 313 311 311 305 306 308 307 306 304 305 306 308 310 307 304 306 306 303 301 301 301 301 300 302 302
302 303 306 307 308 308 308 310 306 307 307 306 306 306 307 310 308 312 311 311 313 312 312 308 309 310 309 308 308 306 305 306 304 305 306 308 308 302 303 304 304 302 302 301 303
299 305 305 306 306 308 310 312 308 307 307 305 305 305 308 308 306 310 308 308 310 310 312 309 309 310 311 309 307 309 306 304 306 306 308 307 306 306 305 306 304 305 303 302 301
295 301 300 307 306 308 311 310 308 309 307 305 305 306 307 308 307 307 306 306 307 310 309 309 311 309 306 306 308 308 307 306 308 310 310 310 307 306 304 303 303 304 304 303 303
299 298 298 303 307 308 311 310 309 308 307 307 306 306 306 306 308 306 306 306 307 307 307 305 305 304 303 306 306 308 307 306 307 308 308 308 305 303 302 303 303 303 303 303 303
292 293 297 305 304 308 309 310 309 308 307 307 306 305 305 304 304 305 305 305 305 307 306 306 303 304 302 303 306 308 307 307 307 307 308 307 308 304 304 302 302 302 302 303 303
Wind_Speed
24 25 27 25 25 24 29 25 22 27 28 32 31 25 18 16 13 13 8 12 10 18 6 4 3 4 4 3 3 4 4 3 3 5 3 5 5 1 3 6 1 3 6 5 28
26 26 25 28 28 28 29 26 23 28 32 32 26 30 20 14 9 9 23 14 15 17 15 2 1 5 3 2 2 4 4 9 5 4 4 5 5 9 5 4 1 1 5 22 33
28 27 23 26 28 27 26 27 23 30 34 38 27 22 22 17 1 7 29 16 17 19 16 15 3 3 1 1 2 3 5 5 2 2 3 6 3 3 9 3 8 10 11 19 24
18 21 19 24 30 28 20 27 25 29 31 31 30 28 21 19 10 4 13 23 22 22 21 21 1 6 3 4 3 4 5 3 1 4 3 6 8 6 7 6 6 10 20 22 20
13 16 23 22 25 25 26 26 28 29 35 35 35 33 24 4 6 2 3 22 23 25 23 9 10 4 6 3 4 2 3 4 1 1 3 6 4 5 8 2 6 15 17 17 19
15 15 19 20 21 23 27 26 31 31 38 40 39 33 7 10 4 9 7 12 25 26 17 14 10 6 4 2 4 4 3 2 1 3 3 3 1 2 5 4 7 14 16 13 18
16 18 17 17 21 25 32 28 32 34 34 33 34 24 4 8 6 1 6 15 27 23 8 11 16 7 8 3 3 2 3 4 3 2 3 2 1 6 1 4 9 9 10 11 14
16 18 19 17 17 24 28 18 33 34 36 33 30 16 2 7 11 3 4 11 19 15 17 11 9 5 5 3 4 4 3 1 1 3 1 7 8 2 6 9 9 7 7 7 9
18 19 16 20 18 20 22 21 32 34 37 32 18 6 3 12 9 12 4 12 14 14 9 10 6 4 3 6 3 4 4 4 3 3 3 3 7 1 5 8 7 7 7 8 8
18 19 17 16 17 19 25 19 30 35 35 22 12 4 6 6 14 13 10 13 8 7 6 4 5 4 3 4 6 5 4 3 6 5 2 5 8 3 5 6 8 8 8 7 8
18 17 16 14 21 25 25 11 9 6 20 9 17 2 12 17 20 15 17 11 3 6 6 2 5 11 8 7 6 7 5 5 2 2 3 6 9 9 2 4 7 8 8 9 14
17 18 16 15 18 26 18 6 21 11 10 4 18 3 6 25 9 7 19 7 4 5 5 4 9 5 7 5 5 5 5 3 1 2 3 2 10 8 6 6 9 11 9 14 5
16 17 16 14 16 17 15 27 33 28 6 3 14 4 6 8 10 13 16 4 4 6 5 8 6 8 8 5 7 3 7 5 3 2 2 1 7 7 6 5 5 7 8 6 13
15 17 16 16 6 17 11 26 35 22 3 9 9 6 6 7 3 2 10 10 4 7 6 5 3 9 5 6 5 5 4 5 6 4 4 1 6 6 6 9 7 10 9 14 13
15 16 17 18 6 11 11 27 32 7 7 14 8 15 7 16 17 2 1 5 9 7 7 7 8 6 4 7 6 6 6 7 3 3 1 1 3 7 4 7 8 11 13 15 15
15 16 17 15 20 22 17 30 15 8 6 8 7 9 14 4 6 5 6 4 4 5 4 3 2 6 9 3 6 8 7 7 5 3 5 8 6 6 7 7 6 7 11 17 16
13 16 19 19 18 32 22 12 6 12 7 7 6 13 27 9 7 22 17 9 8 9 7 3 2 0 4 7 3 4 7 1 0 1 6 0 4 15 6 7 9 13 13 9 7
15 15 22 27 25 20 17 7 9 9 9 6 13 19 12 17 10 13 15 8 6 5 6 11 7 8 3 7 8 6 8 5 6 4 3 1 7 6 8 7 9 9 8 5 6
12 17 23 26 30 27 5 12 8 18 10 15 19 15 6 7 10 11 15 20 8 11 9 8 6 3 2 3 9 6 6 6 6 3 3 5 7 10 8 10 10 13 6 10 7
6 8 17 24 26 16 8 13 4 12 10 22 9 8 12 16 15 19 21 17 12 14 2 7 5 2 5 5 2 7 9 3 2 3 4 4 5 6 3 11 10 8 11 5 6
5 4 9 29 25 6 5 10 5 7 20 13 10 9 10 16 11 20 29 7 23 18 5 6 5 3 6 6 8 4 4 3 5 5 5 1 6 8 12 3 6 7 7 8 8
3 4 10 38 5 2 9 7 6 15 5 5 5 4 17 26 8 14 17 8 27 14 13 2 6 4 4 2 5 7 10 11 8 4 1 3 7 3 6 6 6 9 7 6 5
2 2 11 32 9 7 5 10 5 16 18 6 5 4 9 18 7 16 13 20 22 20 21 9 2 4 4 4 3 6 2 7 6 3 7 5 7 2 4 5 4 7 4 4 4
2 3 2 4 10 8 11 13 6 15 5 6 7 10 14 12 2 18 11 16 18 19 14 15 3 7 14 14 10 6 8 6 8 3 5 10 7 7 7 4 6 3 1 5 7
2 3 1 5 10 16 15 11 8 10 5 7 4 16 15 8 9 9 5 8 8 15 11 7 10 4 3 3 7 5 8 11 15 23 12 35 18 14 9 8 5 4 2 5 7
3 2 1 3 9 24 18 13 21 11 13 17 15 22 18 12 18 6 8 4 7 4 6 4 4 4 5 5 5 6 8 14 18 27 19 18 11 5 6 3 4 6 7 7 7
3 1 1 7 7 15 14 15 18 18 2 16 14 9 9 7 10 10 11 11 13 11 4 8 6 4 5 1 5 3 17 18 19 21 24 14 16 5 6 6 7 9 10 10 9
Wind_Direction
252 255 244 231 241 258 235 237 232 231 209 201 195 207 207 201 192 195 216 216 196 197 183 157 153 136 109 87 91 133 73 162 229 157 227 159 145 125 102 116 321 152 153 178 163
247 253 252 234 234 251 239 233 230 223 207 192 189 199 193 174 189 219 214 231 202 177 187 212 109 56 42 68 36 93 124 203 201 194 205 193 164 157 127 115 224 66 37 142 156
251 255 261 232 225 243 241 234 226 217 205 198 193 181 198 181 77 240 212 210 188 191 184 169 330 15 16 48 171 147 171 199 303 258 197 180 174 167 122 224 214 189 162 156 157
262 251 264 239 229 236 243 238 227 215 206 198 193 194 179 167 195 101 211 210 196 176 163 153 74 189 200 181 234 126 201 179 51 345 164 189 135 182 181 211 208 178 166 161 172
257 248 259 246 231 232 245 248 225 217 203 194 196 199 183 173 233 58 56 204 188 182 173 143 150 221 166 174 154 182 204 145 117 325 226 135 199 199 213 8 110 134 161 175 174
262 259 249 245 232 232 241 248 221 210 198 182 192 179 166 216 279 224 360 208 189 185 170 164 168 181 116 121 203 191 190 110 118 132 93 153 76 151 227 125 121 150 172 178 180
252 259 261 255 248 226 237 239 213 201 192 171 187 175 170 196 180 139 18 214 199 184 152 173 159 161 131 122 232 92 61 356 201 195 125 122 56 234 99 140 155 171 179 180 187
242 245 257 252 249 237 234 255 205 190 186 182 180 149 190 173 156 173 329 217 200 188 179 163 158 99 123 140 88 113 97 135 306 161 150 121 248 258 163 150 186 193 180 179 201
242 245 246 251 245 234 242 259 200 192 175 161 157 161 148 171 120 183 254 201 178 161 138 153 123 121 78 122 84 25 169 171 290 138 151 158 238 271 167 165 195 198 203 205 208
236 238 244 256 244 251 230 245 189 172 151 137 148 95 167 197 147 166 232 192 231 127 88 86 71 115 61 141 190 145 142 210 185 204 150 180 243 243 162 182 214 205 201 210 219
233 234 239 254 239 236 219 225 168 151 153 161 184 129 144 143 141 160 172 182 174 73 142 162 133 190 180 179 160 147 148 152 222 12 137 209 236 237 168 188 232 228 217 220 225
231 237 236 239 239 234 256 246 176 135 145 216 183 87 124 145 122 148 167 156 141 136 115 91 206 182 158 145 132 139 155 182 82 85 142 172 262 260 190 231 212 215 217 228 228
232 238 241 246 238 233 253 228 164 151 118 174 179 133 151 169 144 159 156 128 132 129 179 165 196 141 144 148 144 160 158 174 185 112 99 25 278 258 239 227 220 227 222 213 222
234 231 233 236 238 240 251 230 171 155 134 155 171 222 150 136 95 153 165 137 160 169 145 170 126 149 142 163 128 158 192 147 135 124 216 144 274 259 230 235 203 230 218 229 225
231 232 232 218 193 190 220 207 161 115 207 150 160 150 144 168 138 249 100 82 151 158 159 197 141 127 138 172 159 198 155 147 124 119 49 189 290 258 164 239 235 232 227 234 228
229 229 229 237 235 240 221 168 135 175 189 167 157 144 146 152 143 127 97 36 130 106 64 126 69 147 179 109 152 145 77 47 53 74 252 198 189 211 205 192 229 228 230 228 230
222 233 228 226 226 223 225 167 173 200 128 156 156 160 162 152 132 158 162 166 162 135 159 71 134 207 141 91 57 105 112 16 296 258 232 249 195 258 291 253 221 217 225 230 243
223 233 245 245 236 223 209 180 197 126 164 149 151 141 163 149 162 164 152 159 234 110 125 168 199 166 186 164 160 169 161 158 190 201 230 69 231 244 231 278 250 245 243 232 237
223 252 254 246 226 196 199 201 174 158 159 145 148 150 127 141 136 155 187 184 174 177 152 152 212 118 142 145 154 198 196 152 102 31 52 223 295 301 277 270 247 241 216 238 237
224 238 245 233 214 166 220 210 205 155 116 132 140 158 161 169 146 173 184 202 198 182 145 188 130 205 171 135 106 177 148 162 32 155 245 272 277 236 286 254 246 246 222 232 233
211 248 240 195 158 165 239 204 173 171 138 152 148 161 156 169 156 178 183 209 200 187 64 156 105 182 145 210 154 137 166 90 139 163 185 274 259 220 239 347 328 282 241 232 223
216 231 206 151 151 178 201 203 134 160 113 118 103 77 166 170 147 176 188 177 193 173 197 194 109 144 190 185 186 185 181 191 197 199 211 133 262 213 247 262 267 253 260 222 184
208 233 229 155 183 211 195 209 133 158 171 136 128 173 162 164 137 193 188 206 178 175 184 180 149 100 26 358 173 222 139 181 97 87 197 156 251 245 276 306 282 255 225 205 168
144 217 223 235 148 188 181 194 127 167 128 91 107 118 130 163 77 191 178 168 184 187 168 151 120 192 197 208 133 168 178 168 149 175 202 244 260 287 297 308 327 346 111 164 175
171 237 275 156 184 189 182 173 142 149 151 130 103 166 159 154 174 177 150 145 170 182 179 159 190 180 18 124 160 149 172 181 193 222 189 244 232 220 218 227 235 247 189 176 191
188 214 254 79 168 180 182 185 176 153 157 190 172 171 171 167 184 121 119 124 156 81 155 10 174 99 356 356 159 161 183 187 210 224 231 242 256 185 204 150 215 223 201 221 222
173 206 262 155 153 181 181 169 200 163 268 180 142 148 173 166 127 147 145 158 147 155 134 139 131 118 243 8 90 6 202 198 217 226 220 225 243 193 202 213 228 219 207 210 211